Total_Precipitation_Accumulation
1.25 1.22 1.17 1.26 1.23 1.21 1.29 1.25 1.08 1.10 1.07 0.96 0.93 0.94 0.98 0.99 1.17 1.31 1.70 2.37 3.13 3.86 4.03 3.70 3.20 2.88 2.76 2.69 2.60 2.54 2.44 2.43 2.59 2.78 2.73 2.83 3.08 3.09 3.08 3.42 3.64 3.91 3.98
1.05 1.14 1.21 1.32 1.21 1.22 1.31 1.21 1.14 1.16 1.18 1.09 0.99 0.99 0.97 1.02 1.11 1.25 1.44 1.86 2.35 3.06 3.80 3.94 3.55 3.17 2.94 2.87 2.87 2.90 2.70 2.54 2.52 2.71 2.75 2.68 2.82 2.85 2.79 2.99 3.32 3.60 4.04
1.05 1.14 1.21 1.26 1.24 1.22 1.24 1.28 1.30 1.23 1.13 1.07 1.08 1.03 0.98 1.00 1.17 1.29 1.37 1.60 1.71 1.92 2.71 3.55 3.81 3.62 3.40 3.40 3.32 3.16 2.99 2.85 2.68 2.71 2.78 2.70 2.77 2.68 2.70 2.78 2.86 2.99 3.53
1.07 1.31 1.35 1.22 1.26 1.36 1.40 1.47 1.43 1.32 1.25 1.24 1.25 1.19 1.13 1.16 1.28 1.38 1.34 1.36 1.45 1.41 1.74 2.33 2.91 3.30 3.64 3.79 3.78 3.54 3.32 3.16 2.86 2.76 2.76 2.73 2.79 2.60 2.60 2.64 2.63 2.76 3.02
1.21 1.47 1.57 1.41 1.35 1.53 1.51 1.40 1.44 1.51 1.50 1.55 1.41 1.40 1.37 1.40 1.38 1.29 1.29 1.36 1.46 1.50 1.58 1.57 1.85 2.28 2.98 3.54 3.88 4.07 3.70 3.42 3.06 2.80 2.71 2.55 2.60 2.54 2.48 2.46 2.45 2.62 2.70
1.45 1.66 1.84 1.76 1.65 1.78 1.82 1.68 1.80 1.89 1.83 1.89 1.70 1.58 1.51 1.50 1.43 1.42 1.39 1.47 1.61 1.52 1.57 1.56 1.57 1.43 1.88 2.63 3.33 3.86 3.92 3.71 3.36 2.95 2.82 2.53 2.63 2.54 2.36 2.26 2.33 2.50 2.61
1.90 2.03 2.03 2.26 2.28 2.23 2.26 2.20 2.39 2.47 2.22 2.05 2.41 2.32 1.88 1.55 1.41 1.49 1.57 1.64 1.78 1.81 1.78 1.79 1.77 1.52 1.45 1.78 2.46 3.43 3.72 3.67 3.45 3.15 3.06 2.83 2.63 2.46 2.39 2.31 2.29 2.25 2.43
2.26 2.17 2.28 2.52 2.53 2.61 2.68 2.53 2.72 2.89 2.61 2.30 2.78 3.27 2.83 2.31 1.64 1.39 1.49 1.65 1.86 1.91 1.86 1.74 1.77 1.75 1.68 1.73 1.87 2.58 3.20 3.58 3.55 3.38 3.24 3.19 2.71 2.48 2.42 2.35 2.30 2.23 2.20
2.62 2.55 2.53 2.68 2.70 2.76 2.92 2.92 2.90 3.09 3.08 2.76 2.72 3.31 3.30 2.91 2.41 1.81 1.63 1.69 1.89 2.00 2.03 1.99 1.84 1.87 1.81 1.88 1.98 1.88 2.18 2.87 3.43 3.45 3.35 3.31 3.06 2.74 2.51 2.45 2.38 2.25 2.09
2.74 2.70 2.71 2.82 2.85 2.82 2.89 2.90 2.89 3.21 3.50 3.33 3.04 2.77 2.70 2.72 2.79 2.42 1.98 1.80 1.90 1.99 2.10 2.02 2.05 2.14 2.11 2.09 2.08 1.81 1.68 1.94 2.57 3.10 3.25 3.34 3.24 3.00 2.70 2.60 2.60 2.40 2.24
2.54 2.42 2.54 2.74 2.78 2.80 2.81 2.95 3.02 3.30 3.38 3.34 3.28 3.15 2.94 2.72 2.32 2.41 2.38 2.13 2.05 1.94 2.03 2.19 2.27 2.33 2.27 2.42 2.54 2.01 1.64 1.60 1.98 2.55 3.04 3.29 3.42 3.42 3.17 2.87 2.71 2.67 2.61
2.47 2.28 2.33 2.44 2.57 2.67 2.66 2.71 2.87 3.02 3.26 3.41 3.35 3.20 3.21 3.15 2.90 2.66 2.34 2.22 2.33 2.19 2.04 2.02 2.11 2.20 2.35 2.48 2.40 2.21 1.71 1.56 1.70 1.88 2.25 2.81 3.27 3.58 3.53 3.37 3.17 2.99 2.96
2.43 2.39 2.28 2.30 2.36 2.43 2.58 2.81 2.83 2.88 3.03 3.21 3.24 3.19 3.19 3.05 2.98 2.95 2.68 2.32 2.24 2.14 2.05 1.99 1.97 2.04 2.11 2.22 2.26 2.19 1.78 1.68 1.59 1.56 1.60 1.83 2.40 2.95 3.37 3.63 3.62 3.40 3.37
1.99 1.99 2.03 2.12 2.24 2.30 2.40 2.61 2.73 2.75 2.79 2.81 2.81 3.00 3.12 3.01 2.82 2.74 2.74 2.79 2.52 2.27 2.07 1.97 1.92 1.90 1.95 1.96 2.10 2.12 1.69 1.62 1.55 1.45 1.40 1.33 1.54 1.90 2.44 2.89 3.08 3.17 3.41
1.60 1.61 1.65 1.80 1.99 2.11 2.16 2.29 2.48 2.49 2.58 2.59 2.63 2.69 2.72 2.80 2.68 2.51 2.49 2.61 2.75 2.52 2.32 2.10 1.90 1.72 1.76 1.74 1.84 1.60 1.55 1.60 1.56 1.45 1.31 1.22 1.21 1.36 1.68 2.08 2.30 2.28 2.33
1.56 1.61 1.61 1.61 1.72 1.81 1.92 2.09 2.21 2.28 2.37 2.34 2.33 2.38 2.43 2.50 2.50 2.45 2.44 2.50 2.53 2.50 2.37 2.11 1.81 1.56 1.62 1.67 1.84 1.57 1.63 1.83 1.72 1.56 1.33 1.25 1.22 1.22 1.35 1.48 1.58 1.55 1.55
1.62 1.61 1.62 1.64 1.64 1.71 1.78 1.87 1.99 2.11 2.12 2.14 2.02 2.03 2.16 2.26 2.46 2.50 2.47 2.45 2.45 2.38 2.24 2.10 1.84 1.63 1.60 1.69 1.76 1.64 1.66 1.72 1.64 1.59 1.44 1.34 1.23 1.28 1.38 1.40 1.42 1.34 1.25
1.46 1.51 1.60 1.54 1.52 1.57 1.66 1.77 1.86 1.89 1.93 1.88 1.78 1.80 1.91 1.99 2.15 2.28 2.41 2.32 2.34 2.33 2.31 2.24 2.01 1.80 1.70 1.71 1.78 1.74 1.61 1.60 1.61 1.68 1.51 1.42 1.32 1.24 1.35 1.34 1.40 1.45 1.35
1.44 1.51 1.61 1.66 1.55 1.46 1.54 1.61 1.70 1.72 1.70 1.60 1.56 1.62 1.68 1.76 1.87 1.99 2.10 2.20 2.23 2.22 2.32 2.28 2.07 1.88 1.72 1.67 1.72 1.66 1.60 1.67 1.58 1.69 1.64 1.50 1.44 1.34 1.35 1.35 1.32 1.42 1.43
1.32 1.34 1.45 1.53 1.54 1.47 1.41 1.39 1.40 1.57 1.58 1.48 1.36 1.34 1.36 1.39 1.51 1.66 1.78 1.94 2.11 2.25 2.33 2.35 2.18 1.94 1.75 1.70 1.77 1.81 1.79 1.69 1.69 1.61 1.65 1.61 1.60 1.55 1.44 1.40 1.31 1.29 1.37
1.14 1.20 1.34 1.49 1.54 1.50 1.50 1.48 1.38 1.41 1.47 1.50 1.44 1.32 1.20 1.21 1.34 1.43 1.50 1.75 1.97 2.13 2.25 2.31 2.21 2.02 1.86 1.78 1.74 1.74 1.81 1.88 1.88 1.74 1.69 1.58 1.55 1.42 1.29 1.31 1.30 1.22 1.20
1.05 1.05 1.13 1.26 1.40 1.37 1.58 1.62 1.50 1.37 1.37 1.38 1.38 1.35 1.35 1.32 1.19 1.16 1.23 1.40 1.65 1.84 2.00 2.11 2.13 1.94 1.75 1.73 1.80 1.82 1.82 1.88 1.91 1.77 1.72 1.78 1.72 1.59 1.43 1.29 1.35 1.27 1.20
1.03 1.03 1.10 1.21 1.33 1.53 1.64 1.46 1.52 1.45 1.39 1.39 1.34 1.33 1.35 1.32 1.39 1.24 1.20 1.21 1.22 1.40 1.66 1.88 1.89 1.79 1.82 1.77 1.76 1.73 1.71 1.69 1.71 1.74 1.77 1.78 1.76 1.65 1.48 1.40 1.49 1.41 1.34
1.03 1.05 1.12 1.19 1.26 1.48 1.59 1.41 1.60 1.61 1.56 1.49 1.43 1.46 1.50 1.51 1.44 1.55 1.51 1.39 1.26 1.23 1.35 1.30 1.37 1.66 1.81 1.87 1.89 1.90 1.92 1.82 1.73 1.74 1.69 1.71 1.60 1.55 1.46 1.38 1.45 1.37 1.30
1.04 1.05 1.04 1.05 1.08 1.19 1.34 1.28 1.43 1.52 1.62 1.60 1.47 1.43 1.47 1.47 1.72 1.83 1.65 1.55 1.43 1.33 1.53 1.56 1.55 1.64 1.76 1.79 1.78 1.83 1.88 1.84 1.75 1.68 1.58 1.50 1.42 1.50 1.59 1.50 1.46 1.51 1.43
1.08 1.01 0.98 0.94 0.95 0.99 1.22 1.13 1.24 1.28 1.44 1.58 1.55 1.48 1.65 1.57 1.63 1.64 1.52 1.67 1.58 1.41 1.34 1.32 1.32 1.39 1.43 1.51 1.61 1.58 1.70 1.76 1.66 1.68 1.53 1.47 1.45 1.54 1.61 1.52 1.38 1.35 1.38